Plentywood (PWD)
Plentywood, MT
Field Elevation: 2251
Lat: 48°47.32N  Long: 104°31.39W
CTAF/Unicom Freq: 122.8000
   
     For Weather-by-Phone, call 406-765-2149
Weather Advisories
10/21/2014 19:55 Z
Altimeter 29.60" Hg
Wind 140° @ 7 KT
Gusts --
Visibility 10 SM
Temperature 22° C (72° F)
Dewpoint 7° C (45° F)
Relative Humidity 37%
Density Altitude 3,900 feet
Condensation Altitude 9,800 feet
  Wind and Runways
Indicated Runway = 12
History
 
 
More Info
All DigiWx sites map
NOAA Forecast
 
Airport IQ 5010
(S59) Libby
(6S5) Ravalli County
 
about DigiWx
 
FAA Disclaimer: The data displayed is for advisory purposes only and is not to be used for flight planning or operations. For official data, please call 406-765-2149 to hear the current automated AWOS voice message.
  METAR PWD 211955Z AUTO 14007KT 10SM 22/07 A2960